Regional Weather Roundup
Issued by NWS

Home | Current Version | Previous Version | Text Only | Print | Product List | Glossary On
Versions: 1 2 3 4 5 6 7 8 9 10 11 12 13 14 15 16 17 18 19 20 21 22 23 24 25 26 27 28 29 30 31 32 33 34 35 36 37 38 39 40 41 42 43 44 45 46 47 48 49 50
714
ASUS43 KDTX 210210
RWRMI
MICHIGAN HOURLY REGIONAL WEATHER ROUNDUP
NATIONAL WEATHER SERVICE DETROIT/PONTIAC MI
ISSUED BY NATIONAL WEATHER SERVICE GRAND RAPIDS MI
1000 PM EDT SUN AUG 20 2017

NOTE: "FAIR" INDICATES FEW OR NO CLOUDS BELOW 12,000 FEET WITH NO
SIGNIFICANT WEATHER AND/OR OBSTRUCTION TO VISIBILITY.

MIZ047>049-052>055-059>063-066>070-074>076-081>083-210300-
SOUTHEAST LOWER MICHIGAN

CITY           SKY/WX    TMP DP  RH WIND       PRES   REMARKS
ADRIAN         CLOUDY    74  68  81 SE3       30.09R
ALMA           PTCLDY    67  64  88 SW8       30.07R
ANN ARBOR      MOCLDY    73  67  81 CALM      30.09R
BAD AXE        CLOUDY    66  63  90 CALM      30.08R
DETROIT CITY   MOCLDY    76  63  64 S6        30.08R
DETROIT        CLOUDY    75  66  73 SE5       30.10R
FLINT          PTCLDY    73  63  70 S3        30.08R
GROSSE ILE     CLOUDY    73  67  81 CALM      30.08R
HILLSDALE      CLOUDY    70  66  88 CALM      30.09S
HOWELL         CLOUDY    75  63  65 SE3       30.09R

CITY           SKY/WX    TMP DP  RH WIND       PRES   REMARKS
JACKSON        CLOUDY    77  64  64 SE6       30.08S
LANSING        CLOUDY    72  62  71 CALM      30.08R
MASON          CLOUDY    74  63  67 S3        30.08S
MONROE         CLOUDY    74  67  77 CALM      30.08R
MT. CLEMENS    CLOUDY    71  67  87 S7        30.06R
PONTIAC        CLOUDY    75  63  66 S3        30.08R
PORT HOPE        N/A     69  61  75 S3        30.05R
PORT HURON     MOCLDY    66  61  82 CALM      30.09S
TRI CITIES     PTCLDY    73  62  68 S7        30.06R
YPSILANTI      CLOUDY    74  67  78 SE5       30.09R
$$
MIZ043>046-050>051-056>058-064>065-071>073-077>080-210300-
SOUTHWEST LOWER MICHIGAN

CITY           SKY/WX    TMP DP  RH WIND       PRES   REMARKS
BATTLE CREEK   MOCLDY    75  64  68 S3        30.08R
BENTON HARBOR  CLOUDY    78  65  63 S3        30.05R
BIG RAPIDS     PTCLDY    66  61  84 CALM      30.06R
COLDWATER      CLOUDY    74  67  80 CALM      30.08S
HOLLAND        CLOUDY    71  66  84 CALM      30.05R
GRAND RAPIDS   CLOUDY    73  67  81 SE3       30.06R
KALAMAZOO      PTCLDY    76  62  62 S5        30.07R
MARSHALL       CLOUDY    72  65  80 CALM      30.07S
MOUNT PLEASANT PTCLDY    70  63  80 CALM      30.05R
MUSKEGON       MOCLDY    73  63  70 E3        30.04R
STURGIS        MOCLDY    71  67  87 CALM      30.07S
$$
MIZ016>042-210300-
NORTHERN LOWER MICHIGAN

CITY           SKY/WX    TMP DP  RH WIND       PRES   REMARKS
ALPENA         MOCLDY    70  64  81 S3        30.02R
BEAVER ISLAND  CLEAR     71  63  74 SW12G18   29.98R
BELLAIRE       MOCLDY    69  63  81 CALM      30.01R
CADILLAC       MOCLDY    69  62  80 SW7       30.06R
CHARLEVOIX     CLEAR     73  62  68 S7        30.02R
GAYLORD        MOCLDY    70  59  68 SW10      30.03R
HOUGHTON LAKE  PTCLDY    71  62  73 S5        30.06R
MANISTEE       MOCLDY    70  63  78 CALM      30.03R
OSCODA         CLOUDY    72  60  65 S6        30.03S
PELLSTON       MOCLDY    69  62  78 SE3       29.99R
TRAVERSE CITY  CLOUDY    75  62  64 S6        29.99R
LUDINGTON      PTCLDY    72  62  70 S5        30.03R
$$
MIZ007>008-015-210300-
EASTERN UPPER MICHIGAN

CITY           SKY/WX    TMP DP  RH WIND       PRES   REMARKS
KINROSS        CLOUDY    70  63  78 S3        29.99R
MACKINAC ISLAN PTCLDY    72  63  74 SW6       29.98R
NEWBERRY       CLEAR     67  66  97 S12G18    29.96R FOG
S. S. MARIE    CLOUDY    72  62  71 SE3       29.97R
$$
MIZ004>006-011>014-085-210300-
CENTRAL UPPER MICHIGAN

CITY           SKY/WX    TMP DP  RH WIND       PRES   REMARKS
MANISTIQUE     CLEAR     67  61  81 SW8       29.95S
ESCANABA       CLEAR     71  68  90 S7        29.94R
MENOMINEE      PTCLDY    74  68  81 SW8       29.96R
SAWYER-GWINN   MOCLDY    73  66  78 CALM      29.95R
$$
MIZ001>003-009>011-084-210300-
WESTERN UPPER MICHIGAN

CITY           SKY/WX    TMP DP  RH WIND       PRES   REMARKS
IRON MOUNTAIN  CLOUDY    76  65  68 W6        29.95R
HOUGHTON       CLOUDY    70  61  73 W14       29.93R
COPPER HARBOR    N/A     73  60  63 NW8       29.90R
IRONWOOD       MOCLDY    68  65  90 CALM      29.99
$$

ABBREVIATIONS USED IN REMARKS
   TC - TEMPERATURE IN CELSIUS
  WCI - WIND CHILL INDEX
   HX - HEAT INDEX
  VSB - VISIBILITY





USA.gov is the U.S. government's official web portal to all federal, state and local government web resources and services.